Richmond, VA

1:16 PM EDT on July 25, 2017 (GMT -0400)
Richmond International

Weather History for KRIC - April, 2012

Change the Weather History Date:

Saturday, April 28, 2012

  Actual Average Record
Temperature  
Mean Temperature 52 °F 62 °F  
Max Temperature 59 °F 74 °F 93 °F (1957)
Min Temperature 45 °F 50 °F 32 °F (1931)
Degree Days  
Heating Degree Days 13 5  
Month to date heating degree days 210 230  
Since 1 July heating degree days 2833 3682  
Cooling Degree Days 0 2  
Month to date cooling degree days 35 34  
Year to date cooling degree days 68 40  
Growing Degree Days 2 (Base 50)    
Moisture  
Dew Point 40 °F    
Average Humidity 65    
Maximum Humidity 86    
Minimum Humidity 43    
Precipitation  
Precipitation 0.10 in 0.11 in 1.34 in (1923)
Month to date precipitation 2.30 3.06  
Year to date precipitation 9.76 12.90  
Snow  
Snow 0.00 in 0.00 in 2.00 in (1898)
Month to date snowfall 0.0 0.1  
Since 1 July snowfall 4.5 10.3  
Snow Depth 0.00 in    
Sea Level Pressure  
Sea Level Pressure 30.22 in    
Wind  
Wind Speed 5 mph (NE)    
Max Wind Speed 18 mph    
Max Gust Speed 23 mph    
Visibility 10 miles    
Events Rain    
T = Trace of Precipitation, MM = Missing Value Source: NWS Daily Summary

Daily Weather History Graph

Daily Weather History Graph

Search for Another Location

Airport or City:

Trip Planner

Search our weather history database for the weather conditions in past years. The results will help you decide how hot, cold, wet, or windy it might be!

Date:

Astronomy

Apr. 28, 2012 Rise Set
Actual Time 6:17 AM EDT 7:56 PM EDT
Civil Twilight 5:49 AM EDT 8:24 PM EDT
Nautical Twilight 5:15 AM EDT 8:58 PM EDT
Astronomical Twilight 4:39 AM EDT 9:34 PM EDT
Moon 11:55 AM EDT (4/28) 1:19 AM EDT (4/28)
Length of Visible Light 14h 35m
Length of Day
13h 39m
Waxing Crescent, 42% of the Moon is Illuminated
Apr 28
Waxing Crescent
Apr 29
First Quarter
May 5
Full
May 12
Last Quarter
May 20
New

Hourly Weather History & Observations

Time (EDT) Temp. Windchill Dew Point Humidity Pressure Visibility Wind Dir Wind Speed Gust Speed Precip Events Conditions
12:54 AM 51.1 °F - 37.0 °F 59% 30.21 in 10.0 mi NNE 8.1 mph - N/A   Mostly Cloudy
1:54 AM 50.0 °F - 35.1 °F 57% 30.21 in 10.0 mi ENE 4.6 mph - N/A   Scattered Clouds
2:54 AM 48.9 °F - 34.0 °F 56% 30.21 in 10.0 mi ENE 6.9 mph - N/A   Scattered Clouds
3:54 AM 48.0 °F - 34.0 °F 58% 30.22 in 10.0 mi NE 6.9 mph - N/A   Scattered Clouds
4:54 AM 48.9 °F - 32.0 °F 52% 30.23 in 10.0 mi NE 5.8 mph - N/A   Mostly Cloudy
5:54 AM 46.0 °F 43.1 °F 34.0 °F 63% 30.25 in 10.0 mi NNE 5.8 mph - N/A   Mostly Cloudy
6:54 AM 48.0 °F - 33.1 °F 56% 30.28 in 10.0 mi NNE 5.8 mph - N/A   Mostly Cloudy
7:54 AM 50.0 °F - 30.9 °F 48% 30.30 in 10.0 mi NE 8.1 mph - N/A   Mostly Cloudy
8:54 AM 52.0 °F - 32.0 °F 47% 30.30 in 10.0 mi NE 6.9 mph - N/A   Mostly Cloudy
9:54 AM 55.0 °F - 34.0 °F 45% 30.31 in 10.0 mi NE 9.2 mph - N/A   Mostly Cloudy
10:54 AM 57.9 °F - 36.0 °F 44% 30.29 in 10.0 mi North 6.9 mph - N/A   Mostly Cloudy
11:54 AM 57.9 °F - 35.1 °F 42% 30.31 in 10.0 mi North 4.6 mph - N/A   Mostly Cloudy
12:54 PM 55.9 °F - 36.0 °F 47% 30.23 in 10.0 mi ESE 6.9 mph - N/A   Overcast
1:54 PM 50.0 °F - 45.0 °F 83% 30.25 in 6.0 mi North 11.5 mph 23.0 mph 0.08 in Rain Light Rain
1:57 PM 50.0 °F - 46.4 °F 87% 30.23 in 10.0 mi North 10.4 mph - 0.00 in Rain Light Rain
2:54 PM 52.0 °F - 45.0 °F 77% 30.23 in 10.0 mi NNE 5.8 mph - 0.00 in   Overcast
3:29 PM 51.8 °F - 44.6 °F 76% 30.19 in 10.0 mi ENE 3.5 mph - N/A   Overcast
3:41 PM 51.8 °F - 44.6 °F 76% 30.19 in 10.0 mi Calm Calm - N/A   Overcast
3:54 PM 52.0 °F - 44.1 °F 74% 30.21 in 10.0 mi Calm Calm - N/A   Overcast
4:54 PM 51.1 °F - 45.0 °F 80% 30.21 in 10.0 mi North 3.5 mph - 0.01 in Rain Light Rain
5:54 PM 50.0 °F - 44.1 °F 80% 30.20 in 10.0 mi Calm Calm - 0.01 in Rain Light Rain
6:30 PM 50.0 °F - 44.6 °F 82% 30.14 in 10.0 mi SE 3.5 mph - 0.00 in   Overcast
6:54 PM 51.1 °F - 45.0 °F 80% 30.17 in 10.0 mi Calm Calm - 0.00 in   Overcast
7:20 PM 50.0 °F - 44.6 °F 82% 30.17 in 10.0 mi North 8.1 mph - N/A   Overcast
7:34 PM 50.0 °F - 44.6 °F 82% 30.15 in 10.0 mi Calm Calm - N/A   Overcast
7:54 PM 50.0 °F - 45.0 °F 83% 30.18 in 10.0 mi North 4.6 mph - N/A   Overcast
8:54 PM 50.0 °F - 46.0 °F 86% 30.18 in 10.0 mi Calm Calm - N/A   Overcast
9:54 PM 50.0 °F - 46.0 °F 86% 30.20 in 10.0 mi North 5.8 mph - N/A   Overcast
10:54 PM 50.0 °F - 46.0 °F 86% 30.16 in 10.0 mi SE 4.6 mph - N/A   Overcast
11:54 PM 50.0 °F - 46.9 °F 89% 30.15 in 10.0 mi Calm Calm - N/A   Overcast